Total_Precipitation_Accumulation
0.66 0.80 0.85 0.80 0.79 0.84 0.90 0.95 1.00 0.97 0.96 0.90 0.80 0.74 0.73 0.71 0.63 0.54 0.42 0.38 0.38 0.35 0.35 0.34 0.37 0.42 0.47 0.51 0.58 0.67 0.74 0.82 0.94 1.10 1.35 1.63 1.84 2.06
0.84 0.93 0.97 0.99 0.97 0.89 0.93 0.97 1.01 1.06 1.02 0.85 0.78 0.79 0.71 0.56 0.53 0.47 0.40 0.42 0.39 0.36 0.33 0.31 0.30 0.35 0.39 0.41 0.38 0.41 0.46 0.50 0.55 0.61 0.71 0.86 1.04 1.26
0.99 1.10 1.14 1.18 1.17 1.05 0.99 0.96 0.97 1.05 0.99 0.83 0.78 0.80 0.69 0.53 0.47 0.44 0.41 0.40 0.36 0.37 0.33 0.30 0.29 0.30 0.34 0.35 0.35 0.34 0.35 0.36 0.40 0.44 0.48 0.55 0.59 0.67
1.06 1.24 1.32 1.27 1.16 1.08 1.06 1.00 0.99 1.08 1.02 0.93 0.90 0.85 0.77 0.67 0.58 0.52 0.44 0.40 0.38 0.41 0.37 0.33 0.30 0.29 0.28 0.28 0.28 0.28 0.29 0.30 0.31 0.33 0.35 0.39 0.40 0.42
1.08 1.13 1.15 1.21 1.17 1.09 1.03 0.98 0.97 1.07 1.07 0.98 1.04 1.03 0.92 0.80 0.69 0.58 0.50 0.48 0.41 0.39 0.40 0.37 0.34 0.29 0.27 0.26 0.26 0.26 0.25 0.24 0.26 0.28 0.30 0.34 0.34 0.34
0.98 1.01 1.03 1.05 1.10 1.15 1.09 1.03 1.05 1.07 1.08 1.07 1.09 1.22 1.12 0.96 0.80 0.66 0.57 0.52 0.47 0.35 0.36 0.40 0.38 0.33 0.29 0.27 0.25 0.25 0.26 0.25 0.24 0.25 0.24 0.26 0.32 0.37
0.79 0.76 0.85 1.01 1.10 1.16 1.07 1.04 1.11 1.10 1.09 1.13 1.15 1.27 1.29 1.14 0.91 0.70 0.61 0.59 0.55 0.49 0.42 0.35 0.33 0.29 0.27 0.28 0.28 0.26 0.24 0.24 0.23 0.22 0.22 0.25 0.29 0.39
0.71 0.67 0.67 0.77 0.91 0.99 0.98 0.96 1.01 1.06 1.09 1.12 1.18 1.25 1.31 1.23 1.06 0.90 0.75 0.64 0.59 0.57 0.59 0.52 0.40 0.34 0.28 0.24 0.27 0.28 0.27 0.24 0.23 0.21 0.20 0.20 0.24 0.34
0.63 0.60 0.51 0.50 0.66 0.75 0.84 0.88 0.86 0.85 0.92 1.06 1.17 1.18 1.30 1.35 1.28 1.07 0.96 0.84 0.67 0.63 0.68 0.65 0.57 0.46 0.36 0.33 0.37 0.32 0.30 0.29 0.28 0.27 0.23 0.19 0.18 0.21
0.54 0.55 0.57 0.56 0.57 0.62 0.72 0.79 0.81 0.79 0.77 0.83 0.96 1.14 1.32 1.48 1.46 1.33 1.22 1.07 0.87 0.76 0.74 0.71 0.64 0.56 0.46 0.40 0.42 0.38 0.35 0.33 0.31 0.36 0.43 0.42 0.29 0.24
0.67 0.67 0.65 0.60 0.58 0.53 0.58 0.62 0.66 0.75 0.74 0.74 0.82 1.03 1.22 1.36 1.51 1.45 1.31 1.12 0.93 0.78 0.73 0.68 0.62 0.62 0.57 0.48 0.42 0.43 0.37 0.35 0.35 0.37 0.49 0.72 0.78 0.60
0.84 0.80 0.66 0.55 0.48 0.43 0.47 0.53 0.54 0.56 0.67 0.72 0.75 0.85 1.01 1.14 1.29 1.29 1.15 1.09 0.92 0.77 0.65 0.63 0.56 0.61 0.65 0.56 0.47 0.41 0.38 0.37 0.38 0.42 0.58 0.88 1.03 0.90
0.84 0.79 0.72 0.57 0.43 0.39 0.39 0.46 0.49 0.56 0.65 0.71 0.81 0.93 1.08 1.20 1.20 1.17 1.13 1.01 0.91 0.71 0.56 0.62 0.59 0.54 0.53 0.50 0.45 0.43 0.39 0.35 0.35 0.39 0.50 0.76 1.02 0.99
0.96 0.90 0.85 0.68 0.50 0.45 0.40 0.40 0.41 0.43 0.57 0.65 0.71 0.83 0.98 1.13 1.23 1.28 1.27 1.13 0.95 0.82 0.73 0.73 0.66 0.60 0.52 0.45 0.43 0.42 0.46 0.43 0.41 0.39 0.41 0.58 0.72 0.98
1.08 1.11 0.97 0.81 0.66 0.56 0.54 0.52 0.46 0.44 0.56 0.66 0.67 0.71 0.79 0.94 1.22 1.45 1.55 1.48 1.20 0.94 0.83 0.78 0.70 0.66 0.64 0.51 0.41 0.39 0.44 0.48 0.47 0.46 0.46 0.50 0.61 0.78
1.12 1.16 1.05 0.95 0.81 0.68 0.63 0.57 0.50 0.47 0.52 0.61 0.65 0.72 0.83 0.97 1.15 1.35 1.55 1.59 1.42 1.06 0.88 0.82 0.76 0.76 0.71 0.60 0.50 0.41 0.37 0.41 0.44 0.47 0.54 0.57 0.67 0.77
1.17 1.26 1.21 1.12 1.04 0.92 0.83 0.77 0.71 0.65 0.60 0.62 0.75 0.82 0.90 0.94 1.03 1.17 1.39 1.50 1.37 1.04 0.84 0.82 0.87 0.88 0.84 0.80 0.67 0.49 0.42 0.37 0.38 0.47 0.57 0.59 0.63 0.68
1.02 1.19 1.18 1.10 1.06 1.04 1.00 0.94 0.90 0.84 0.79 0.79 0.84 0.91 0.94 0.97 1.03 1.13 1.25 1.34 1.29 1.10 0.91 0.80 0.89 0.97 0.92 0.82 0.68 0.55 0.46 0.43 0.44 0.54 0.61 0.59 0.55 0.59
0.82 1.00 1.02 1.01 1.03 1.07 1.05 0.97 0.90 0.91 0.95 0.93 0.89 0.93 0.98 1.01 1.04 1.12 1.17 1.25 1.28 1.22 1.07 0.94 0.91 0.91 0.81 0.62 0.53 0.53 0.53 0.51 0.56 0.60 0.62 0.60 0.52 0.51
0.73 0.87 0.92 0.95 0.99 1.05 1.04 1.03 1.00 1.02 1.05 1.01 0.98 0.99 1.06 1.09 1.07 1.08 1.15 1.18 1.23 1.26 1.22 1.07 0.92 0.85 0.75 0.64 0.57 0.50 0.48 0.52 0.58 0.59 0.60 0.63 0.60 0.59
0.81 0.87 0.91 0.92 0.95 1.02 1.05 1.06 1.08 1.11 1.10 1.10 1.10 1.11 1.16 1.22 1.13 1.07 1.13 1.20 1.17 1.20 1.15 1.02 0.91 0.95 0.97 0.94 0.73 0.52 0.50 0.50 0.53 0.58 0.63 0.67 0.64 0.64
0.88 0.87 0.92 0.94 0.96 0.98 1.02 1.03 1.06 1.11 1.11 1.12 1.17 1.20 1.20 1.21 1.14 1.10 1.10 1.15 1.10 1.06 1.07 1.12 1.22 1.24 1.13 0.98 0.75 0.63 0.62 0.60 0.59 0.59 0.57 0.57 0.57 0.54
0.89 0.89 0.90 0.88 0.89 0.93 0.96 0.99 1.07 1.11 1.11 1.11 1.16 1.21 1.21 1.19 1.14 1.13 1.11 1.11 1.15 1.16 1.22 1.29 1.36 1.31 1.13 1.00 0.85 0.76 0.74 0.73 0.69 0.63 0.57 0.53 0.47 0.42